TimeEDT,TemperatureF,Dew PointF,Humidity,Sea Level PressureIn,VisibilityMPH,Wind Direction,Wind SpeedMPH,Gust SpeedMPH,PrecipitationIn,Events,Conditions,WindDirDegrees,DateUTC
12:15 AM,59.5,58.8,97,30.02,5.0,Calm,Calm,-,N/A,,Overcast,0,2012-10-05 04:15:00
12:35 AM,59.4,58.8,98,30.01,10.0,WNW,5.8,-,N/A,,Overcast,300,2012-10-05 04:35:00
12:55 AM,59.4,58.8,98,30.01,10.0,NW,3.5,-,N/A,,Overcast,310,2012-10-05 04:55:00
1:15 AM,59.2,58.3,97,30.02,7.0,West,4.6,-,N/A,,Overcast,280,2012-10-05 05:15:00
1:35 AM,59.0,58.1,97,30.01,5.0,WNW,3.5,-,N/A,,Overcast,300,2012-10-05 05:35:00
2:15 AM,58.5,57.6,97,30.01,1.2,Calm,Calm,-,N/A,,Overcast,0,2012-10-05 06:15:00
2:35 AM,58.3,57.6,97,30.00,1.0,Calm,Calm,-,N/A,,Overcast,0,2012-10-05 06:35:00
2:55 AM,58.1,57.4,97,30.00,0.8,Calm,Calm,-,N/A,,Overcast,0,2012-10-05 06:55:00
3:15 AM,58.1,57.4,97,29.99,1.2,WNW,3.5,-,N/A,,Overcast,290,2012-10-05 07:15:00
3:35 AM,58.1,57.2,97,29.99,2.0,Calm,Calm,-,N/A,,Overcast,0,2012-10-05 07:35:00
3:55 AM,57.7,57.2,98,29.99,4.0,West,3.5,-,N/A,,Overcast,260,2012-10-05 07:55:00
4:15 AM,57.6,57.0,98,30.00,5.0,Calm,Calm,-,N/A,,Overcast,0,2012-10-05 08:15:00
4:35 AM,57.4,56.7,97,30.00,10.0,Calm,Calm,-,N/A,,Overcast,0,2012-10-05 08:35:00
4:55 AM,57.2,56.5,97,30.00,5.0,Calm,Calm,-,N/A,,Overcast,0,2012-10-05 08:55:00
5:15 AM,57.2,56.5,97,30.00,5.0,Calm,Calm,-,N/A,,Overcast,0,2012-10-05 09:15:00
5:35 AM,57.2,56.3,97,30.01,10.0,Calm,Calm,-,N/A,,Overcast,0,2012-10-05 09:35:00
5:55 AM,56.8,56.3,98,30.01,10.0,NW,3.5,-,N/A,,Overcast,320,2012-10-05 09:55:00
6:15 AM,55.8,54.9,97,30.01,5.0,Calm,Calm,-,N/A,,Scattered Clouds,0,2012-10-05 10:15:00
6:35 AM,54.7,53.8,97,30.01,1.0,Calm,Calm,-,N/A,,Overcast,0,2012-10-05 10:35:00
6:55 AM,54.7,54.0,97,30.01,0.8,Calm,Calm,-,N/A,,Overcast,0,2012-10-05 10:55:00
7:15 AM,53.8,53.1,97,30.01,0.2,Calm,Calm,-,N/A,Fog,Fog,0,2012-10-05 11:15:00
7:35 AM,54.5,53.8,97,30.01,1.0,Calm,Calm,-,N/A,,Overcast,0,2012-10-05 11:35:00
7:55 AM,55.4,54.7,97,30.00,3.0,Calm,Calm,-,N/A,,Overcast,0,2012-10-05 11:55:00
8:15 AM,56.3,55.8,98,30.01,5.0,WNW,5.8,-,N/A,,Overcast,300,2012-10-05 12:15:00
8:35 AM,56.7,56.1,98,30.01,4.0,WNW,6.9,-,N/A,,Overcast,290,2012-10-05 12:35:00
8:55 AM,57.4,56.7,97,30.01,7.0,West,5.8,-,N/A,,Mostly Cloudy,280,2012-10-05 12:55:00
9:15 AM,58.3,56.3,93,30.01,7.0,WNW,9.2,-,N/A,,Scattered Clouds,300,2012-10-05 13:15:00
9:35 AM,59.4,56.3,90,30.01,10.0,West,5.8,-,N/A,,Clear,280,2012-10-05 13:35:00
9:55 AM,60.8,57.0,87,30.00,10.0,WNW,5.8,-,N/A,,Clear,290,2012-10-05 13:55:00
10:15 AM,62.1,57.4,85,30.00,10.0,WNW,4.6,-,N/A,,Clear,300,2012-10-05 14:15:00
10:55 AM,64.8,57.2,76,29.99,10.0,Calm,Calm,-,N/A,,Clear,0,2012-10-05 14:55:00
11:15 AM,65.8,57.4,74,29.99,10.0,WNW,3.5,-,N/A,,Clear,290,2012-10-05 15:15:00
11:35 AM,66.9,58.1,73,29.99,10.0,Calm,Calm,-,N/A,,Clear,0,2012-10-05 15:35:00
11:55 AM,69.4,56.8,64,29.98,10.0,West,5.8,-,N/A,,Clear,280,2012-10-05 15:55:00
12:15 PM,70.3,57.4,63,29.97,10.0,SW,5.8,-,N/A,,Clear,220,2012-10-05 16:15:00
12:35 PM,71.6,56.1,58,29.96,10.0,WNW,5.8,-,N/A,,Clear,290,2012-10-05 16:35:00
12:55 PM,72.7,55.2,54,29.96,10.0,NW,4.6,-,N/A,,Clear,310,2012-10-05 16:55:00
1:15 PM,73.6,52.9,48,29.95,10.0,WNW,6.9,-,N/A,,Clear,300,2012-10-05 17:15:00
1:35 PM,74.1,54.5,50,29.94,10.0,WNW,5.8,-,N/A,,Clear,300,2012-10-05 17:35:00
1:55 PM,74.8,50.9,43,29.93,10.0,West,4.6,-,N/A,,Clear,280,2012-10-05 17:55:00
2:15 PM,75.2,50.9,42,29.92,10.0,West,5.8,-,N/A,,Clear,280,2012-10-05 18:15:00
2:35 PM,75.2,50.0,41,29.91,10.0,West,4.6,-,N/A,,Scattered Clouds,260,2012-10-05 18:35:00
3:15 PM,76.3,51.6,42,29.90,10.0,South,3.5,-,N/A,,Clear,180,2012-10-05 19:15:00
3:35 PM,75.9,51.6,43,29.90,10.0,WSW,4.6,-,N/A,,Clear,240,2012-10-05 19:35:00
3:55 PM,76.1,50.4,40,29.89,10.0,Calm,Calm,-,N/A,,Scattered Clouds,0,2012-10-05 19:55:00
4:15 PM,75.9,52.0,43,29.89,10.0,West,6.9,-,N/A,,Mostly Cloudy,260,2012-10-05 20:15:00
4:35 PM,76.3,52.2,43,29.89,10.0,Calm,Calm,-,N/A,,Mostly Cloudy,0,2012-10-05 20:35:00
4:55 PM,76.3,51.1,41,29.89,10.0,Calm,Calm,-,N/A,,Mostly Cloudy,0,2012-10-05 20:55:00
5:15 PM,73.9,54.0,50,29.89,10.0,SW,5.8,-,N/A,,Mostly Cloudy,220,2012-10-05 21:15:00
5:35 PM,72.9,55.2,54,29.89,10.0,SSW,3.5,-,N/A,,Mostly Cloudy,200,2012-10-05 21:35:00
5:55 PM,70.7,55.8,59,29.89,10.0,Calm,Calm,-,N/A,,Scattered Clouds,0,2012-10-05 21:55:00
6:15 PM,66.9,57.7,72,29.89,10.0,Calm,Calm,-,N/A,,Clear,0,2012-10-05 22:15:00
6:35 PM,64.9,58.8,81,29.90,10.0,Calm,Calm,-,N/A,,Clear,0,2012-10-05 22:35:00
6:55 PM,61.9,59.0,90,29.90,10.0,Calm,Calm,-,N/A,,Scattered Clouds,0,2012-10-05 22:55:00
7:15 PM,61.7,58.1,88,29.91,10.0,Calm,Calm,-,N/A,,Mostly Cloudy,0,2012-10-05 23:15:00
7:35 PM,61.7,58.1,88,29.91,10.0,Calm,Calm,-,N/A,,Overcast,0,2012-10-05 23:35:00
7:55 PM,60.8,58.5,92,29.91,7.0,Calm,Calm,-,N/A,,Overcast,0,2012-10-05 23:55:00
8:15 PM,60.3,58.1,93,29.91,10.0,Calm,Calm,-,N/A,,Scattered Clouds,0,2012-10-06 00:15:00
8:35 PM,58.6,56.8,94,29.90,7.0,Calm,Calm,-,N/A,,Clear,0,2012-10-06 00:35:00
8:55 PM,58.1,56.8,96,29.90,5.0,Calm,Calm,-,N/A,,Clear,0,2012-10-06 00:55:00
9:15 PM,56.5,55.4,96,29.90,4.0,Calm,Calm,-,N/A,,Clear,0,2012-10-06 01:15:00
9:35 PM,56.8,55.9,97,29.90,3.0,Calm,Calm,-,N/A,,Clear,0,2012-10-06 01:35:00
9:55 PM,55.9,55.0,97,29.91,1.2,Calm,Calm,-,N/A,,Mist,0,2012-10-06 01:55:00
10:15 PM,55.8,55.0,97,29.90,2.5,Calm,Calm,-,N/A,,Clear,0,2012-10-06 02:15:00
10:35 PM,55.8,55.2,98,29.90,2.0,Calm,Calm,-,N/A,,Clear,0,2012-10-06 02:35:00
10:55 PM,55.6,54.9,97,29.91,2.0,Calm,Calm,-,N/A,,Clear,0,2012-10-06 02:55:00
11:15 PM,56.1,55.4,97,29.90,3.0,Calm,Calm,-,N/A,,Scattered Clouds,0,2012-10-06 03:15:00
11:35 PM,56.3,55.6,97,29.89,4.0,Calm,Calm,-,N/A,,Scattered Clouds,0,2012-10-06 03:35:00